TimePST,TemperatureF,Dew PointF,Humidity,Sea Level PressureIn,VisibilityMPH,Wind Direction,Wind SpeedMPH,Gust SpeedMPH,PrecipitationIn,Events,Conditions,WindDirDegrees,DateUTC
12:55 AM,18.0,12.9,81,30.29,10.0,Calm,Calm,-,N/A,,Clear,0,2013-01-01 08:55:00
1:55 AM,18.0,12.9,81,30.31,10.0,North,6.9,-,N/A,,Clear,10,2013-01-01 09:55:00
2:55 AM,17.1,12.0,81,30.34,10.0,North,3.5,-,N/A,,Clear,350,2013-01-01 10:55:00
3:36 AM,15.8,12.2,86,30.26,10.0,Calm,Calm,-,N/A,,Mostly Cloudy,0,2013-01-01 11:36:00
3:55 AM,17.1,12.0,81,30.37,10.0,Calm,Calm,-,N/A,,Mostly Cloudy,0,2013-01-01 11:55:00
4:32 AM,17.6,12.2,79,30.28,2.5,Calm,Calm,-,N/A,,Haze,0,2013-01-01 12:32:00
4:50 AM,17.6,12.2,79,30.29,4.0,Calm,Calm,-,N/A,,Overcast,0,2013-01-01 12:50:00
4:51 AM,17.1,12.9,84,30.40,4.0,Calm,Calm,-,N/A,,Overcast,0,2013-01-01 12:51:00
5:55 AM,18.0,12.9,81,30.42,9.0,Calm,Calm,-,N/A,,Mostly Cloudy,0,2013-01-01 13:55:00
6:43 AM,17.6,14.0,86,30.33,10.0,Calm,Calm,-,N/A,,Mostly Cloudy,0,2013-01-01 14:43:00
6:55 AM,18.0,12.9,81,30.43,10.0,Calm,Calm,-,N/A,,Mostly Cloudy,0,2013-01-01 14:55:00
7:55 AM,17.1,12.9,84,30.46,9.0,Calm,Calm,-,N/A,,Scattered Clouds,0,2013-01-01 15:55:00
8:55 AM,19.0,15.1,85,30.48,9.0,Calm,Calm,-,N/A,,Partly Cloudy,0,2013-01-01 16:55:00
9:55 AM,21.9,14.0,72,30.48,10.0,SE,3.5,-,N/A,,Partly Cloudy,140,2013-01-01 17:55:00
10:55 AM,24.1,12.9,62,30.50,10.0,NE,8.1,-,N/A,,Partly Cloudy,40,2013-01-01 18:55:00
11:55 AM,25.0,14.0,63,30.48,10.0,Calm,Calm,-,N/A,,Partly Cloudy,0,2013-01-01 19:55:00
12:55 PM,27.0,15.1,61,30.45,10.0,Variable,3.5,-,N/A,,Partly Cloudy,0,2013-01-01 20:55:00
1:55 PM,28.9,16.0,58,30.45,10.0,ESE,6.9,-,N/A,,Partly Cloudy,110,2013-01-01 21:55:00
2:55 PM,28.9,17.1,61,30.47,10.0,East,3.5,-,N/A,,Partly Cloudy,90,2013-01-01 22:55:00
3:55 PM,28.9,16.0,58,30.48,10.0,ESE,4.6,-,N/A,,Clear,110,2013-01-01 23:55:00
4:55 PM,27.0,15.1,61,30.49,10.0,NE,4.6,-,N/A,,Clear,50,2013-01-02 00:55:00
5:55 PM,24.1,14.0,65,30.53,10.0,Calm,Calm,-,N/A,,Clear,0,2013-01-02 01:55:00
6:55 PM,21.9,14.0,72,30.53,10.0,SSE,6.9,-,N/A,,Clear,150,2013-01-02 02:55:00
7:55 PM,19.9,12.9,74,30.54,10.0,Calm,Calm,-,N/A,,Clear,0,2013-01-02 03:55:00
8:55 PM,19.0,12.0,74,30.54,10.0,SSE,4.6,-,N/A,,Clear,160,2013-01-02 04:55:00
9:55 PM,18.0,12.0,78,30.53,10.0,Calm,Calm,-,N/A,,Clear,0,2013-01-02 05:55:00
10:55 PM,18.0,10.9,74,30.51,10.0,Calm,Calm,-,N/A,,Clear,0,2013-01-02 06:55:00
11:55 PM,17.1,10.9,77,30.51,10.0,NE,3.5,-,N/A,,Clear,40,2013-01-02 07:55:00